Wind_Speed
49 46 43 41 39 41 44 43 41 39 37 35 34 32 32 31 30 31 33 37 40 40 37 33 26 23 24 23 24 22 19 21 22 22 25 24 23 22 16 16 17 18 22 22 19 18 16 15 13 12 11 10 10 10 10 9 8 5 2 2 2 3 3 4 6 6 3 2 3 4 6 5 4 7 8 6 8 12 12 10 10 12 12 7 6 6 6 10
50 48 45 43 40 40 42 43 42 41 39 36 35 34 32 31 30 30 31 33 37 40 39 36 31 25 23 22 23 23 20 20 20 24 28 23 21 22 16 15 19 19 21 23 21 19 18 16 13 12 12 11 8 10 10 8 9 6 3 3 4 4 4 4 5 6 3 1 4 4 5 7 6 9 10 5 6 9 8 8 9 10 11 9 9 9 9 12
50 49 46 44 41 40 41 42 42 41 40 38 36 35 33 32 30 29 28 30 33 36 37 38 36 30 23 20 19 18 19 18 19 27 29 24 22 20 18 16 18 21 21 22 22 20 18 15 14 13 13 11 8 10 9 7 8 5 3 3 6 6 4 3 4 5 3 2 4 4 4 7 7 9 10 6 6 6 7 10 10 11 13 12 11 11 11 13
50 49 47 45 42 41 40 40 41 41 40 39 38 36 35 33 31 29 27 27 29 32 34 36 37 35 27 21 18 16 18 15 19 31 29 25 24 21 20 17 18 23 22 22 21 19 17 14 15 15 14 9 7 9 8 8 7 4 5 4 5 5 3 4 6 5 3 3 4 4 3 4 6 8 8 8 5 4 11 17 15 13 14 13 13 13 13 15
49 49 48 45 43 41 40 39 39 41 40 40 40 38 37 35 32 30 28 26 26 28 29 31 33 36 34 28 20 15 15 9 12 27 28 24 24 21 21 19 20 22 22 22 22 19 16 17 17 15 12 7 6 6 6 11 8 3 5 3 3 6 3 4 7 6 5 5 4 4 3 3 5 6 8 11 8 5 12 18 18 14 11 11 11 13 16 17
49 49 49 47 44 42 40 39 39 40 41 40 40 39 37 37 34 31 29 27 25 25 24 26 28 32 36 35 25 15 12 5 1 15 24 23 24 22 21 22 22 23 22 21 22 20 17 18 19 15 9 5 6 5 4 11 9 3 4 3 5 7 4 5 8 7 6 6 6 5 3 3 3 4 6 12 14 10 6 9 13 13 11 10 11 13 17 18
50 50 50 48 45 43 40 39 39 39 40 40 40 40 38 37 36 32 30 28 26 25 22 23 24 27 30 31 30 22 18 13 2 7 13 18 24 23 21 23 24 25 24 21 21 21 20 21 20 17 10 3 6 6 4 9 9 4 3 4 7 8 6 6 7 7 7 7 6 5 3 3 3 3 4 9 17 15 8 7 8 11 13 13 13 15 17 17
52 51 50 49 47 44 41 40 40 39 38 38 39 40 38 36 35 34 32 29 27 25 23 23 22 25 25 25 28 22 24 28 14 6 8 13 22 25 22 23 25 26 26 24 23 24 24 23 22 18 9 4 5 6 5 5 5 5 5 4 6 7 7 7 7 6 6 6 5 5 4 5 6 5 6 11 16 14 11 11 10 10 13 16 17 17 18 19
52 51 50 49 48 46 43 41 40 39 37 37 37 38 38 37 35 35 34 31 28 26 24 24 23 25 23 25 26 18 26 39 27 13 7 8 13 25 26 22 25 28 27 27 24 23 23 24 25 19 10 8 7 6 8 6 3 7 9 6 5 6 6 7 9 7 6 6 5 4 4 6 7 6 8 14 16 15 13 13 14 13 14 17 18 19 20 20
53 52 51 49 48 47 45 42 40 39 36 35 35 35 36 36 35 34 34 32 30 28 26 24 25 27 26 28 25 13 25 38 32 24 16 6 6 20 29 23 25 31 29 28 25 23 23 23 26 21 11 10 9 5 8 7 4 6 9 8 6 6 6 7 9 8 6 5 6 4 4 7 6 4 6 9 9 13 17 16 15 15 17 18 19 20 21 22
53 52 51 49 49 48 47 44 41 39 36 34 33 33 33 34 35 34 33 32 30 29 28 26 26 29 29 30 26 14 19 28 29 29 25 17 9 13 28 28 26 32 30 29 27 23 23 22 25 21 8 6 9 4 6 10 7 6 7 7 6 5 4 6 8 8 5 4 6 4 4 8 6 4 8 12 10 10 14 14 13 14 16 19 20 21 22 23
54 52 51 50 49 49 48 46 42 38 34 32 32 31 30 30 32 33 32 31 30 29 29 28 27 29 29 28 28 21 15 19 25 29 28 23 12 10 23 31 26 29 31 29 26 22 22 21 23 19 6 6 8 2 6 12 8 6 5 3 5 4 4 7 8 7 5 3 4 1 4 8 8 8 10 15 17 16 16 16 14 15 17 19 21 23 24 24
54 52 51 51 50 49 49 48 45 39 34 32 31 30 28 27 28 30 31 30 29 29 28 29 28 30 30 23 26 25 14 12 19 25 28 27 18 11 21 31 25 24 29 27 24 21 21 20 21 17 6 7 8 3 4 8 6 3 3 2 2 3 4 9 9 6 6 4 4 3 4 8 10 13 15 17 20 21 22 23 21 20 19 20 22 24 26 26
55 53 52 51 51 50 48 48 46 41 36 33 32 30 28 26 25 26 29 29 28 28 27 26 26 28 27 18 20 25 17 10 13 19 23 27 24 15 20 29 23 20 25 23 21 20 20 17 18 16 7 6 7 4 3 3 3 2 2 1 2 2 3 6 9 7 5 5 6 6 3 11 10 10 13 16 20 24 27 27 26 24 22 22 24 26 28 28
55 53 52 51 51 50 48 47 46 43 38 35 33 30 29 27 25 24 26 28 27 27 26 24 25 23 18 13 15 22 22 15 13 16 19 23 26 20 20 29 24 16 18 20 18 18 18 16 15 14 8 7 7 5 3 2 1 1 4 2 2 4 3 3 6 11 9 5 7 7 3 11 10 9 13 15 17 23 27 27 25 23 21 22 24 27 30 30
56 53 52 51 51 50 48 46 45 43 40 37 33 30 30 28 25 23 23 27 26 26 26 23 27 21 9 9 13 18 25 21 15 14 17 21 25 23 21 28 25 12 11 15 15 15 17 13 13 12 8 6 5 4 3 1 2 2 4 3 3 5 2 4 3 11 14 5 5 7 5 8 6 5 12 16 17 19 22 23 23 23 23 23 25 27 30 31
56 54 52 52 51 50 49 46 44 43 40 37 34 31 31 30 27 24 23 26 24 25 24 20 27 24 7 7 11 16 25 25 20 17 18 20 22 24 24 25 23 12 7 9 12 14 16 12 9 8 5 3 2 4 4 5 6 3 2 2 2 3 4 3 3 8 14 7 5 8 7 13 10 4 4 8 12 13 15 19 21 23 24 24 26 27 30 32
57 55 53 52 51 50 49 47 45 42 40 37 34 32 30 30 29 26 25 26 23 22 19 14 19 16 8 13 16 18 24 25 25 23 20 22 21 21 24 23 22 15 5 4 9 12 13 9 6 4 3 3 3 6 8 6 4 5 4 3 2 2 5 6 3 5 9 6 6 7 7 16 16 10 10 11 11 12 15 19 21 23 24 24 26 28 30 32
58 55 53 52 51 50 48 47 45 42 41 37 35 34 30 30 28 26 26 26 23 16 10 15 22 10 3 17 22 19 22 24 27 26 23 24 22 19 20 20 21 17 7 3 5 10 10 6 3 4 7 9 8 10 9 2 5 7 7 5 5 4 5 5 4 4 7 5 6 8 9 15 17 12 13 20 20 19 24 27 26 27 28 27 27 28 29 32
57 55 53 52 50 50 47 46 45 43 43 40 40 37 30 29 20 15 23 26 28 20 10 23 34 13 5 9 22 20 20 23 26 27 25 25 25 22 20 21 21 15 9 4 3 8 10 5 4 8 11 13 11 10 6 1 5 8 6 5 6 5 4 4 4 5 6 5 5 9 10 15 18 12 12 20 18 18 26 28 28 29 30 30 29 30 29 31
55 53 53 52 50 49 47 47 45 45 45 44 46 39 31 32 18 16 27 24 31 29 10 19 35 18 3 9 24 24 21 18 20 25 25 26 28 23 20 21 16 9 11 10 3 4 8 5 8 11 9 9 10 8 4 1 5 8 7 6 6 6 5 5 4 3 4 4 4 7 8 12 17 14 14 15 9 16 27 25 25 28 29 32 33 34 33 30
53 51 52 52 51 49 47 48 46 47 46 45 48 39 36 42 28 31 36 16 23 31 10 11 28 19 3 11 23 25 22 14 15 24 25 28 29 21 19 17 11 8 12 12 3 4 4 7 12 9 6 6 6 7 5 2 4 6 5 5 6 4 1 4 4 2 3 4 4 6 6 10 14 14 13 13 13 23 30 25 26 28 28 33 35 36 36 34
53 50 51 51 51 49 48 48 46 48 46 46 50 40 40 42 25 34 37 11 11 26 13 7 19 20 9 12 23 25 22 14 14 24 27 30 29 23 21 15 9 9 9 10 8 6 4 7 11 8 8 8 5 5 6 2 2 4 4 5 4 3 3 3 4 2 3 3 2 3 5 7 10 11 11 16 22 28 33 30 31 32 31 36 38 37 36 37
53 51 50 50 50 47 47 47 46 48 46 47 49 39 42 38 19 30 31 8 3 17 18 10 12 20 15 13 23 24 19 15 15 24 30 32 28 21 20 16 10 9 9 14 15 11 8 4 9 12 8 8 6 6 8 5 4 4 5 6 4 4 7 5 2 1 1 1 1 1 6 6 7 11 12 13 15 21 28 27 28 34 37 38 38 39 40 40
54 51 49 47 48 48 48 47 47 49 46 47 44 35 40 33 18 30 25 7 3 7 14 13 7 16 18 13 21 22 15 12 15 25 33 34 29 18 14 15 12 8 12 17 15 12 13 7 10 12 7 8 8 7 9 8 5 5 6 8 7 6 7 5 3 2 2 3 2 2 4 6 5 9 11 9 5 10 17 16 22 34 36 35 37 41 44 43
54 52 50 48 48 49 49 46 47 49 44 45 43 35 37 30 22 29 19 7 1 2 7 14 9 13 19 15 20 20 9 7 14 25 33 34 31 20 11 11 8 8 14 13 8 5 8 9 8 7 8 10 10 8 8 9 6 6 6 8 7 7 7 5 5 3 1 4 3 2 4 6 5 5 8 7 5 9 11 9 20 32 31 31 36 41 43 44
54 52 51 50 50 51 49 45 47 48 43 43 43 37 34 30 26 25 13 6 3 5 7 12 10 12 17 16 23 19 4 9 15 20 32 34 31 22 11 8 6 6 10 8 5 5 7 13 9 8 10 9 9 9 11 12 8 6 6 10 9 8 7 5 5 4 3 2 2 1 3 5 7 6 6 8 8 10 12 11 17 26 29 32 36 39 40 41
56 53 50 50 50 49 46 44 47 48 45 44 44 39 33 31 27 18 8 1 4 7 7 10 9 11 17 20 27 16 1 12 13 14 32 34 27 19 8 11 12 9 13 11 8 6 9 14 13 13 13 8 11 14 11 13 9 6 6 10 9 5 4 4 4 4 1 2 3 2 2 3 8 6 4 6 9 11 14 16 16 21 30 34 36 38 37 35
56 52 49 48 47 46 41 41 46 44 41 42 42 39 33 31 23 10 4 2 3 3 6 13 12 11 17 19 23 18 4 8 7 12 31 29 23 16 5 14 16 8 15 16 11 5 6 17 20 15 10 9 14 12 10 13 9 5 6 6 5 5 5 3 3 3 2 1 7 6 5 4 8 5 4 3 6 9 11 12 14 22 32 36 37 39 38 36
54 51 49 47 46 46 38 36 41 38 36 38 39 38 35 26 15 7 5 5 2 2 7 14 13 15 20 14 11 17 10 5 6 15 25 21 22 18 7 14 14 6 10 14 11 2 1 12 17 12 12 12 9 6 8 11 5 3 5 5 5 4 4 3 2 3 2 4 10 10 10 7 7 4 6 5 5 8 9 9 13 21 28 33 36 39 38 37
53 51 50 48 47 46 40 35 37 36 35 36 38 39 31 15 5 5 8 3 3 3 6 9 11 15 20 13 7 13 8 3 6 13 14 10 12 11 6 8 8 4 6 8 9 5 2 6 8 10 16 12 7 5 5 5 4 2 1 4 4 1 1 2 1 1 3 6 9 11 12 10 9 5 4 6 6 7 9 10 12 15 21 30 34 35 34 33
53 52 50 50 48 45 40 37 36 35 35 38 42 39 22 6 2 5 5 2 2 4 6 7 9 11 16 14 10 11 8 4 7 10 9 7 5 6 7 7 7 6 6 6 8 7 4 5 5 6 12 13 8 4 1 3 6 2 1 4 5 3 1 2 3 2 5 7 5 4 9 9 12 9 5 7 7 8 11 15 17 17 22 28 28 27 25 22
50 50 50 51 49 44 38 36 37 35 36 43 43 30 11 3 7 7 5 4 2 4 8 9 10 12 16 15 11 11 10 5 7 9 9 9 6 7 10 10 10 7 4 8 10 7 4 5 6 4 6 14 13 7 4 4 9 9 6 8 8 4 4 5 5 2 6 8 3 2 5 5 9 8 8 11 13 16 19 23 26 24 25 30 30 29 29 29
49 49 49 50 48 44 37 36 38 36 41 47 35 17 8 7 8 8 7 4 2 1 8 11 11 12 13 12 10 12 9 6 8 9 9 9 5 6 9 11 12 6 2 5 7 7 9 8 9 10 8 15 16 14 15 10 10 13 9 7 7 5 5 6 5 6 7 6 2 2 4 4 5 4 5 10 15 20 22 25 28 28 30 32 31 32 35 38
47 47 48 47 45 41 37 38 39 39 46 42 19 8 11 9 7 9 7 4 1 2 6 10 12 10 9 8 7 11 10 6 8 8 7 9 6 6 10 10 14 10 3 4 3 5 11 7 8 15 13 17 18 16 12 7 4 7 5 5 8 5 5 2 2 5 4 3 3 3 4 4 5 7 7 8 13 17 20 25 26 29 31 29 29 32 33 33
47 46 44 43 42 38 37 40 39 42 47 33 10 6 10 7 7 9 8 6 5 6 9 10 10 9 7 5 4 10 9 3 8 7 5 8 8 8 10 8 11 13 8 7 3 2 7 4 7 14 10 15 24 19 14 13 7 3 5 8 6 3 5 2 3 0 3 2 4 3 5 6 5 9 11 10 12 13 15 19 21 28 30 24 26 32 30 29
47 44 40 40 40 36 38 40 40 45 43 23 7 8 7 6 6 7 8 7 5 9 11 8 7 8 8 7 6 11 9 3 8 8 4 7 7 9 11 7 10 15 11 10 5 1 4 2 4 12 11 18 26 19 14 12 6 4 8 9 3 3 2 2 2 1 3 3 4 3 9 7 3 6 7 10 14 14 15 16 16 21 23 21 24 30 27 23
46 42 36 38 40 38 40 40 42 47 35 13 8 9 7 5 4 5 9 8 6 9 9 5 5 7 9 9 8 12 12 7 9 9 7 7 6 11 15 9 10 17 19 15 6 1 3 2 3 11 14 13 12 10 7 6 1 2 5 5 6 2 2 3 3 2 3 5 4 4 9 8 7 8 4 8 16 17 18 20 14 11 15 18 23 26 23 18
43 34 26 35 42 38 40 42 45 42 22 8 10 9 6 6 4 6 15 13 6 7 8 5 3 6 9 9 9 11 13 12 11 9 8 7 5 11 18 13 9 16 24 21 9 2 3 3 4 7 10 8 7 7 8 7 4 0 1 3 4 2 3 5 5 2 3 5 5 4 6 5 9 11 8 10 13 14 17 19 13 12 19 25 27 28 26 23
38 22 14 33 43 37 41 45 39 27 10 7 10 5 5 8 4 7 19 19 7 3 7 6 4 6 9 9 8 8 11 12 11 9 7 8 7 8 14 14 7 10 20 21 13 5 2 3 4 2 4 6 5 8 13 14 10 6 6 8 6 3 1 1 3 3 3 5 4 5 7 8 6 6 9 13 12 12 14 14 12 18 26 31 33 32 29 25
33 13 10 34 42 39 45 37 20 11 6 7 7 2 3 7 4 5 12 14 7 3 5 6 7 7 8 9 8 7 8 9 10 8 5 8 10 6 10 18 13 9 12 12 11 10 4 3 6 3 3 6 7 12 18 19 16 13 11 12 12 10 6 4 6 5 2 5 5 4 9 11 5 5 9 13 12 12 15 15 14 21 25 25 25 24 23 22
25 6 12 35 41 43 42 19 6 8 5 7 11 7 3 6 7 6 7 7 4 1 3 4 5 6 6 8 8 8 8 7 9 9 6 10 13 9 14 26 25 17 13 9 12 14 6 2 7 6 4 6 7 6 6 9 14 15 10 8 11 10 8 9 10 6 5 7 5 2 7 11 6 7 9 12 13 17 23 23 18 22 25 23 22 21 21 22
18 6 17 35 42 46 35 7 3 9 4 8 15 10 4 4 5 6 6 6 3 1 3 3 4 6 6 6 7 9 9 8 10 12 9 10 13 14 17 26 27 17 11 8 8 10 5 1 5 7 3 4 5 5 6 4 7 12 8 5 8 11 12 10 6 5 7 9 8 4 8 12 7 8 9 10 14 18 25 28 23 22 27 28 28 24 20 19
17 14 22 35 45 45 25 4 6 10 6 9 11 6 4 3 6 9 9 7 5 3 4 3 4 6 6 5 8 11 11 9 9 12 11 8 12 18 20 25 25 15 11 11 10 11 8 4 6 8 4 4 4 4 4 3 3 7 10 11 12 15 15 6 1 2 5 9 12 8 9 14 7 4 7 8 9 10 16 22 21 20 27 30 27 22 19 19
16 11 12 26 45 47 23 7 9 11 10 13 12 10 8 3 6 14 14 9 5 5 5 2 3 3 3 4 6 8 12 10 7 9 11 6 6 11 17 26 26 17 17 22 19 16 10 6 8 10 8 9 9 7 7 6 4 5 9 14 15 17 19 11 6 8 8 11 14 10 12 15 7 0 5 9 7 8 13 17 18 21 26 29 26 22 20 21
13 5 1 9 27 35 22 12 11 9 10 13 10 12 14 7 4 9 13 10 5 6 5 2 3 4 2 6 8 8 11 11 6 6 10 10 6 4 15 28 28 23 25 27 25 17 4 5 10 12 13 13 9 6 4 4 6 7 11 18 20 20 23 18 11 11 12 11 12 12 14 18 14 7 7 8 7 9 11 12 15 22 28 31 29 23 22 24
9 5 3 2 7 13 11 10 10 7 10 15 9 9 16 12 4 4 7 7 8 9 4 2 4 7 6 11 12 9 12 13 8 5 8 14 9 2 11 22 23 27 28 23 23 16 3 8 16 16 19 18 10 4 2 3 9 13 17 22 23 22 22 19 15 16 15 11 12 15 15 18 23 17 9 7 9 8 8 10 17 25 30 32 29 24 24 26
5 5 6 5 3 4 8 13 15 11 12 15 8 7 15 14 10 8 5 3 7 10 5 1 5 9 10 13 13 10 11 12 11 8 6 10 9 1 4 9 14 27 25 13 14 11 2 9 17 17 21 23 15 7 4 3 6 10 15 19 21 22 22 22 22 23 19 13 15 18 18 20 26 20 9 9 10 10 13 19 25 28 28 25 23 23 25 24
6 6 5 5 3 2 8 17 19 14 13 14 8 8 15 17 14 9 3 3 5 7 8 8 11 11 10 11 11 12 13 12 13 14 8 9 11 8 6 5 8 18 19 9 10 10 4 7 12 12 16 20 19 12 5 4 5 5 9 13 16 18 20 21 22 23 22 18 17 19 19 19 21 18 11 12 13 15 19 21 21 21 21 20 21 24 25 24
7 6 6 7 6 5 9 13 14 10 9 11 10 9 13 18 17 9 3 6 9 7 8 11 12 10 9 10 10 13 17 14 12 14 11 10 12 9 8 6 3 8 13 9 8 10 9 10 10 9 10 14 17 14 10 9 9 9 10 11 12 16 18 19 19 19 18 17 19 22 20 17 18 18 13 11 11 13 15 15 15 18 20 21 23 25 27 26
8 8 12 11 5 4 8 8 7 8 6 6 7 9 13 18 17 10 3 5 9 8 8 10 11 7 6 9 10 11 12 10 7 7 6 6 8 5 4 4 3 6 12 10 6 7 9 9 8 8 9 12 13 14 14 12 10 13 14 12 12 14 14 15 17 19 18 19 22 23 17 16 19 15 8 8 11 12 11 13 17 20 22 23 25 29 30 28
12 14 15 12 5 1 5 5 4 6 5 3 3 4 8 13 14 10 6 4 6 10 10 9 11 8 5 9 12 12 14 14 10 6 4 2 5 8 5 2 2 4 9 9 6 5 7 8 7 7 8 12 13 13 13 12 10 11 13 14 16 16 15 15 16 19 20 18 16 16 17 19 12 2 5 10 12 14 16 19 22 24 26 28 30 31 30 29
Wind_Direction
213 214 212 209 206 208 211 212 211 211 211 209 207 208 208 208 207 206 208 209 211 213 213 208 199 198 201 204 205 201 205 212 213 212 214 214 213 216 214 208 207 202 202 201 201 205 203 200 204 202 197 193 198 198 199 207 192 176 121 118 193 195 207 184 180 194 165 204 195 164 188 173 157 173 169 175 182 170 167 182 182 193 215 222 219 220 211 202
211 213 213 209 207 206 208 211 211 211 210 208 205 207 207 207 206 205 207 208 211 213 215 215 207 200 194 195 203 202 203 209 215 220 217 211 211 211 208 206 204 199 201 202 202 207 206 201 198 197 195 191 190 186 187 191 183 175 108 149 214 200 207 194 183 199 176 172 162 142 189 185 175 169 160 165 192 177 171 188 188 198 214 216 215 217 217 211
210 211 211 209 207 206 207 208 209 211 210 208 205 204 205 205 204 203 205 206 209 211 214 217 215 211 203 197 197 198 204 207 218 225 216 207 207 204 204 208 203 199 200 203 204 209 211 206 200 197 196 194 187 179 178 181 189 186 137 182 230 214 225 215 184 192 204 210 145 129 176 188 184 170 170 184 195 201 202 198 195 204 213 217 219 219 218 215
209 209 210 209 207 206 205 205 207 209 210 208 205 203 203 203 203 202 202 204 204 208 212 213 216 215 213 209 199 197 205 210 230 230 219 209 207 199 199 199 197 198 199 201 203 207 210 203 199 198 196 198 187 183 184 183 188 187 167 192 224 203 234 219 179 169 173 152 147 157 162 174 182 180 191 178 162 252 233 214 212 217 219 218 219 216 213 214
210 208 209 208 207 206 205 204 204 207 209 208 204 201 201 202 203 201 199 201 201 204 208 209 212 213 215 214 202 192 195 202 240 233 227 218 209 200 196 192 191 191 192 200 201 202 205 197 195 194 195 199 178 179 202 192 177 179 204 225 217 188 214 215 179 163 159 149 162 179 170 180 186 196 205 180 174 242 240 230 230 231 229 227 227 217 210 214
212 207 207 208 205 205 204 203 202 203 206 208 205 200 199 201 202 201 198 197 198 200 202 204 207 209 214 215 209 200 195 194 217 221 227 222 210 202 195 191 190 187 188 197 197 197 198 190 190 190 189 195 188 187 200 191 182 204 239 248 221 201 209 212 185 177 176 170 177 183 204 220 203 230 220 202 215 239 259 252 241 237 239 240 236 221 215 217
213 208 205 206 204 204 204 202 201 201 203 206 205 201 198 198 199 201 200 197 196 197 198 202 203 204 209 212 216 217 219 227 198 177 207 210 207 200 195 195 191 189 190 190 185 189 192 185 183 185 182 183 203 210 189 184 190 205 244 236 223 217 221 214 191 186 188 181 176 176 211 242 222 244 242 227 235 244 258 260 243 233 232 236 232 225 225 225
212 208 204 205 204 204 204 202 200 198 199 202 203 201 198 197 197 199 200 197 196 195 195 198 198 198 199 198 201 205 220 225 219 176 158 181 203 198 196 198 194 196 194 188 181 183 187 184 185 182 175 181 197 205 181 169 200 215 224 219 209 222 230 213 195 190 191 185 177 181 211 240 249 263 266 253 247 246 249 248 242 230 227 231 232 230 230 230
211 208 204 203 203 203 203 201 198 196 195 196 197 198 198 196 195 196 198 197 194 192 192 194 194 191 192 191 184 187 220 223 220 215 165 139 192 198 200 200 195 196 194 188 183 185 188 185 187 185 183 189 185 194 184 173 228 223 213 201 193 214 218 204 201 198 198 197 193 205 232 243 252 269 271 258 250 247 246 244 240 236 234 233 234 235 233 232
210 207 203 202 202 202 201 199 196 194 191 190 191 193 195 195 194 193 195 195 192 191 190 194 194 189 189 187 178 186 223 220 218 219 212 200 201 200 200 198 197 195 192 190 187 190 194 190 189 188 191 190 181 187 184 186 232 236 215 211 214 213 209 207 211 214 212 212 213 219 247 256 254 248 251 250 253 250 243 244 245 242 243 240 238 238 237 238
208 206 201 200 200 200 200 198 195 193 189 187 187 189 191 193 193 192 192 193 192 190 190 193 196 193 190 186 181 193 219 213 211 213 218 227 245 219 199 192 196 197 193 191 192 197 198 197 193 187 192 195 181 183 202 206 230 254 220 220 241 233 233 225 217 221 216 226 227 224 276 275 265 228 231 239 253 259 245 247 252 248 247 244 243 242 240 242
206 206 200 197 199 198 199 198 195 191 189 187 187 189 189 189 191 191 191 190 190 191 189 192 197 196 192 193 196 199 209 210 211 215 220 225 237 250 208 193 193 199 198 195 195 201 204 206 198 187 180 181 169 144 225 214 221 244 203 211 268 278 272 230 218 220 205 225 222 192 310 275 247 232 236 241 249 258 256 257 257 253 251 246 246 245 243 245
205 205 199 196 197 196 197 198 197 193 190 189 188 189 188 186 188 190 190 188 189 191 191 191 198 199 190 195 208 205 204 208 215 222 226 229 230 243 215 197 191 200 202 200 199 201 202 206 203 193 170 164 165 126 201 195 190 214 174 168 259 304 282 221 210 209 194 219 186 136 283 261 245 241 243 245 250 255 255 254 254 253 251 248 247 246 246 247
204 203 198 195 196 195 195 197 199 196 194 193 190 190 190 187 186 187 187 187 187 189 192 192 198 202 193 196 212 208 206 201 211 218 218 226 226 223 212 198 193 201 204 202 205 205 200 200 201 199 191 181 175 138 109 131 147 152 151 166 174 200 265 211 192 178 187 229 181 144 261 260 259 250 245 249 250 250 249 249 250 250 249 250 250 247 248 248
202 201 197 195 195 194 194 194 196 196 195 195 193 193 191 188 184 183 184 184 185 189 191 192 197 201 198 205 214 207 206 200 202 207 203 214 219 215 207 199 194 198 202 202 205 207 204 200 195 192 188 178 165 139 87 31 19 156 184 194 177 195 274 272 192 177 193 221 175 159 250 265 270 263 247 246 241 239 241 246 248 249 251 253 254 251 249 250
201 200 196 195 194 192 192 191 193 194 194 195 196 194 190 188 184 179 179 181 183 189 189 190 196 196 192 212 211 202 201 198 194 197 193 197 207 210 205 199 195 189 193 199 201 201 202 198 190 188 176 163 165 134 99 56 270 247 209 184 173 188 221 301 243 199 202 191 179 200 240 264 281 281 247 235 235 236 239 248 251 254 260 260 259 257 254 253
199 198 195 194 193 191 190 189 190 192 193 194 194 193 189 185 184 179 176 178 182 189 191 192 195 196 205 213 200 195 195 194 193 193 190 186 192 203 206 197 191 188 181 186 191 191 192 184 178 189 179 160 167 134 150 209 220 215 184 164 193 181 176 228 283 228 208 192 214 217 236 252 256 291 261 221 231 247 250 257 262 263 266 267 265 262 258 255
197 196 194 193 192 190 189 188 189 190 190 190 188 188 186 182 184 182 175 176 175 180 189 190 188 191 224 217 201 196 195 193 196 196 192 189 189 198 206 199 190 195 181 155 184 182 181 175 167 182 177 184 185 176 197 212 190 174 166 170 180 174 192 203 228 226 195 190 226 216 240 257 256 259 255 238 237 261 268 266 267 266 267 270 269 264 260 256
196 194 192 192 191 189 187 186 185 185 183 181 179 181 180 175 178 181 178 177 171 166 179 181 179 174 237 212 200 192 191 191 197 198 192 190 191 192 196 191 183 184 158 115 196 184 174 168 163 184 188 199 201 196 211 199 135 165 178 185 179 186 217 214 232 232 181 174 225 220 233 255 259 254 244 246 248 262 271 269 267 268 269 269 268 265 262 256
194 192 191 190 189 188 186 183 180 179 177 174 173 173 171 164 162 174 179 183 181 177 187 190 189 182 40 186 189 182 179 187 193 194 194 192 188 182 174 165 161 159 150 147 209 187 182 186 198 203 199 198 198 198 220 263 141 155 172 197 189 196 232 220 238 249 188 179 229 222 228 250 259 260 248 249 252 258 263 264 264 264 265 265 263 263 261 255
193 191 188 187 188 185 182 179 175 174 174 174 173 172 171 165 161 174 175 185 193 186 186 202 197 194 54 152 177 177 168 177 187 188 195 192 181 173 165 158 151 150 167 168 173 193 186 209 218 210 201 187 187 190 199 206 165 163 175 197 203 206 232 225 227 254 196 197 253 227 229 252 259 263 258 253 246 252 254 255 259 259 261 262 260 259 258 256
193 191 187 184 184 180 178 174 171 170 171 174 174 175 178 174 175 180 172 171 197 191 187 206 199 199 193 155 167 174 168 160 178 185 189 184 176 173 166 166 171 174 167 155 167 242 197 226 225 199 152 146 163 181 184 194 182 181 173 184 213 206 255 270 245 259 193 203 257 244 236 254 262 266 263 251 238 251 256 253 257 258 258 259 258 258 257 256
191 190 186 181 178 176 174 171 169 170 171 174 175 178 180 177 180 182 171 136 184 198 203 191 196 196 183 159 164 173 173 164 172 182 184 181 179 177 169 172 185 171 155 154 185 227 227 237 217 169 139 150 157 182 196 235 212 196 175 179 212 169 156 251 249 227 203 195 220 263 269 262 269 279 271 254 245 253 260 258 259 259 256 258 260 261 259 257
187 186 186 180 173 172 171 169 169 172 174 176 176 179 179 176 178 176 166 101 116 200 207 194 194 191 174 161 171 174 176 178 177 178 183 182 177 175 176 177 174 159 167 177 183 206 241 248 166 160 160 157 165 196 198 214 223 215 203 193 199 171 186 221 225 169 263 280 150 10 305 275 249 262 267 260 247 251 260 260 260 258 256 257 259 260 259 257
184 183 184 178 172 170 166 165 169 173 175 177 178 179 179 175 169 169 158 71 58 195 206 201 203 195 184 173 179 177 176 186 186 182 185 184 176 169 176 179 175 173 182 182 179 203 236 230 164 172 168 150 179 208 200 200 213 230 223 201 192 182 197 206 158 107 13 300 265 107 285 280 244 251 262 268 264 257 261 258 258 259 256 255 255 255 256 256
182 182 181 175 172 167 162 165 170 172 174 179 180 177 178 173 158 165 154 50 286 186 184 193 195 198 192 181 175 172 171 194 194 191 187 187 185 173 161 174 181 190 180 173 178 206 224 210 182 177 169 172 194 211 204 194 203 236 212 178 186 194 202 195 158 154 230 257 293 110 212 274 295 266 258 264 276 269 265 256 255 259 258 254 253 254 256 256
180 181 178 173 171 166 163 167 171 171 173 180 181 174 173 167 152 158 150 31 261 159 146 185 186 187 189 179 173 170 173 181 184 196 189 187 190 179 166 175 174 185 163 144 199 208 174 182 181 172 178 185 199 210 203 187 198 235 165 156 189 201 198 195 166 186 228 258 321 88 174 276 282 255 245 247 258 270 271 265 257 259 260 257 256 257 257 257
180 180 177 171 170 170 169 170 170 173 178 180 178 173 165 158 151 151 143 91 211 150 139 178 176 176 177 171 175 178 138 164 169 199 190 186 187 176 172 189 179 171 157 155 204 195 155 176 178 173 180 187 206 215 196 177 204 241 156 157 181 171 154 164 165 187 347 2 268 218 139 271 269 253 254 247 242 250 257 257 257 258 258 258 259 259 259 260
178 178 177 171 169 173 176 174 172 175 180 177 173 171 160 151 150 135 122 190 194 141 140 162 164 166 163 161 178 190 179 160 164 185 186 188 187 177 185 197 187 165 164 180 202 168 161 195 187 170 175 199 213 218 181 178 210 218 157 137 120 96 87 104 140 143 84 305 248 227 163 231 267 238 199 242 237 233 246 254 256 255 255 256 258 259 261 262
176 175 177 174 169 172 175 173 175 177 177 171 168 166 156 149 148 136 185 202 127 125 139 155 165 159 157 153 179 194 190 166 152 168 182 191 189 187 190 188 185 157 173 202 214 189 102 192 183 177 194 201 199 188 174 187 198 117 133 113 81 49 54 72 50 71 125 238 244 222 178 195 267 232 181 210 211 208 227 247 253 253 253 255 256 259 260 261
175 175 176 175 173 175 172 168 174 177 173 166 161 159 151 142 145 159 189 188 65 135 135 149 164 152 158 160 169 189 190 154 150 161 177 188 186 187 173 171 176 160 182 211 220 248 7 147 169 197 199 180 122 120 164 165 132 90 154 140 119 351 38 74 30 73 216 241 245 220 177 179 238 240 183 226 231 212 218 234 247 253 254 255 257 260 261 261
174 174 175 176 176 178 174 168 170 171 167 161 156 155 147 123 183 183 176 110 75 187 155 150 164 154 163 169 172 181 176 163 171 169 175 184 190 188 182 180 170 172 194 194 199 221 224 180 183 193 189 174 139 123 88 100 140 169 290 164 165 202 192 188 204 186 230 243 260 213 164 185 237 244 231 243 254 241 232 235 242 247 253 258 262 267 268 265
173 173 174 176 177 178 177 170 167 163 159 156 153 150 147 154 179 183 168 146 197 194 159 161 170 166 166 171 180 178 174 183 176 174 183 187 200 204 205 203 186 186 193 183 192 195 206 228 199 159 179 183 170 155 171 170 173 184 189 183 184 182 194 208 204 213 238 240 276 114 158 219 260 258 238 233 241 242 241 244 249 252 258 263 267 270 271 268
173 172 172 174 175 177 179 172 166 163 156 153 150 146 164 179 175 182 190 196 249 152 155 162 163 165 171 180 183 167 172 196 172 171 184 185 196 206 211 215 204 204 89 164 201 185 195 224 190 177 178 177 183 194 191 174 175 192 189 189 199 186 194 206 197 212 232 247 286 165 179 212 236 255 244 238 254 262 262 261 262 264 264 266 267 267 268 266
171 172 171 172 174 177 178 171 166 165 158 152 148 158 173 178 172 181 194 194 202 163 153 152 150 159 181 194 183 173 186 197 169 175 188 188 199 197 201 211 204 202 156 170 223 187 206 234 181 187 180 167 189 209 187 144 165 199 166 189 222 199 171 184 207 207 212 267 271 214 224 231 232 272 281 267 275 276 270 268 267 266 263 262 263 263 264 265
168 169 170 172 175 177 174 168 166 166 159 152 152 181 178 188 179 178 180 166 171 161 142 145 155 160 179 189 181 187 197 168 159 180 197 196 213 208 203 211 200 201 194 186 198 157 205 243 180 186 178 177 196 198 173 166 176 172 169 201 218 139 126 160 259 235 98 234 241 206 252 280 301 284 263 251 272 278 271 265 258 259 260 257 257 260 263 265
163 165 170 173 178 179 171 166 167 166 161 155 169 180 184 204 180 168 168 149 141 149 144 153 168 161 170 180 184 185 182 143 165 186 187 186 210 208 205 221 204 204 209 205 223 149 176 252 190 179 189 203 202 192 182 186 160 133 194 199 149 68 86 129 239 6 82 239 254 215 238 246 263 269 236 217 243 259 266 261 246 248 253 248 250 256 259 263
162 164 168 174 182 180 170 166 167 164 160 160 186 183 189 202 168 148 158 143 124 147 157 163 161 167 175 178 186 181 174 173 176 182 185 185 203 193 192 212 206 200 208 208 224 312 158 270 242 190 196 201 186 176 203 229 190 143 197 169 126 173 225 154 188 206 171 226 263 231 231 227 219 236 212 199 221 228 243 252 246 242 245 238 241 247 248 253
162 162 164 177 184 179 170 167 166 163 157 166 189 190 188 193 199 173 167 161 137 147 170 173 145 176 184 178 182 177 178 188 180 177 191 186 199 191 186 197 201 197 203 201 203 252 174 206 243 206 192 170 143 172 204 215 223 235 135 141 137 199 204 179 206 222 181 221 258 249 233 233 225 222 205 207 217 219 234 248 253 253 248 242 242 243 245 255
161 158 163 182 183 178 172 168 164 162 162 183 187 185 177 184 201 188 176 172 159 140 175 183 158 168 182 184 183 174 183 196 185 184 197 179 189 204 188 188 189 192 201 200 199 208 192 208 235 225 163 160 163 194 198 195 191 187 188 186 184 192 170 180 219 204 181 216 241 257 254 254 240 209 196 207 214 217 228 239 248 249 247 246 246 243 245 259
161 154 171 182 183 179 170 165 161 164 175 190 187 164 171 181 170 175 181 175 168 163 170 175 170 167 176 183 182 173 180 197 192 191 202 185 194 221 193 185 181 177 191 203 206 202 191 201 216 214 166 187 199 199 202 200 187 186 199 195 191 190 179 194 208 193 192 219 202 221 257 260 242 182 190 203 210 217 222 223 234 242 243 246 247 242 247 260
160 149 171 180 184 177 167 158 158 173 179 193 191 181 158 175 170 163 170 163 148 129 136 154 167 167 177 183 180 174 171 188 199 194 200 203 204 212 193 187 186 179 176 197 209 199 186 182 213 226 217 210 215 209 224 220 197 199 212 204 197 191 180 198 210 193 188 213 200 187 264 269 239 187 192 197 203 215 222 224 234 248 251 253 255 258 261 258
160 134 162 179 184 174 165 160 164 170 195 196 189 183 136 143 158 148 163 177 167 106 123 160 185 189 196 187 173 172 172 187 203 199 203 210 213 217 199 186 186 181 172 194 204 188 178 138 208 230 263 251 266 319 345 325 209 210 225 216 201 197 196 202 205 189 190 206 210 212 253 263 244 197 204 210 209 216 226 230 237 250 255 256 258 261 258 244
146 127 150 174 182 175 169 180 172 174 190 180 182 181 135 147 168 163 178 192 178 145 144 179 202 198 199 186 176 179 179 187 203 205 206 207 214 219 207 191 188 180 179 194 179 168 182 180 192 218 235 228 247 282 296 301 234 215 214 208 203 200 201 201 90 206 209 206 207 211 240 254 251 180 204 226 226 231 241 241 240 246 252 254 254 251 242 230
135 125 140 165 174 177 184 199 173 178 182 174 183 188 175 181 192 185 186 182 166 152 151 181 199 164 155 173 185 188 187 194 201 202 210 221 224 219 205 197 195 189 196 198 176 166 188 196 195 213 214 207 213 215 221 222 215 221 211 205 205 199 196 198 200 212 215 206 204 209 230 244 262 75 220 233 229 236 250 249 245 246 250 252 250 244 235 228
144 150 95 144 164 176 194 206 181 179 181 175 183 191 186 187 199 193 187 183 181 161 144 128 137 122 123 171 184 197 200 206 199 178 202 213 220 220 198 197 199 199 203 198 174 160 178 215 205 219 225 224 221 212 216 181 171 198 205 203 208 205 199 200 204 210 216 215 213 217 229 243 254 242 226 234 220 220 239 242 239 242 244 246 245 238 227 224
157 164 159 130 143 160 183 201 192 189 184 179 178 187 188 184 163 168 189 198 189 165 138 48 151 172 190 183 187 201 201 203 201 185 204 207 210 265 202 197 199 202 205 199 177 162 158 219 211 219 230 233 229 193 177 161 178 198 206 206 209 209 203 203 210 213 211 216 229 226 222 241 250 239 214 222 225 220 233 232 230 234 238 243 245 236 225 223
158 157 158 167 146 148 175 188 192 193 184 180 176 178 184 184 172 171 189 201 177 171 169 212 199 203 203 190 191 199 197 202 209 206 208 206 204 229 206 201 206 204 202 197 189 178 146 219 213 215 226 232 229 200 146 145 190 202 212 215 214 211 207 206 213 215 210 212 231 228 215 227 245 243 213 206 215 211 219 223 225 230 236 245 248 238 231 226
137 131 135 144 121 141 165 171 179 184 180 179 182 183 183 183 180 176 151 129 171 191 195 199 206 207 200 198 202 199 191 196 209 206 195 195 197 189 185 205 227 212 199 187 198 192 174 219 218 217 228 234 229 216 178 169 202 209 215 223 225 223 219 216 218 220 219 222 234 238 234 236 246 248 228 213 214 217 226 231 233 235 238 243 242 235 231 226
137 135 140 129 89 83 119 139 159 166 173 185 190 190 184 183 181 169 132 170 180 192 201 199 198 188 179 194 211 212 198 189 200 204 189 185 197 197 193 192 200 203 196 193 198 193 200 219 211 204 233 243 234 228 216 202 212 224 220 219 226 229 228 227 228 228 227 230 235 241 246 246 247 248 237 214 208 219 231 237 238 237 234 233 232 230 228 222
138 138 144 134 103 118 125 121 143 150 159 194 191 184 183 182 176 154 126 203 188 178 188 183 170 161 166 188 212 229 206 173 162 175 165 176 191 183 196 201 156 177 196 201 194 189 207 219 204 197 226 238 229 224 225 218 220 234 230 218 220 227 226 226 229 228 224 223 229 237 243 246 248 249 234 198 197 213 225 224 227 232 230 228 226 225 224 221
142 133 137 132 100 111 135 122 133 143 155 192 177 171 173 171 166 152 147 193 192 185 188 167 150 151 176 193 209 219 199 181 180 174 140 123 121 101 84 33 49 162 192 197 185 178 193 200 199 197 217 236 229 214 216 221 226 236 226 208 212 219 217 220 231 235 232 227 226 229 233 241 251 232 201 212 203 210 224 222 224 229 227 226 227 225 223 223
Height
1443 1446 1449 1453 1457 1461 1464 1467 1471 1474 1477 1480 1482 1485 1488 1490 1492 1494 1496 1499 1502 1504 1507 1509 1512 1514 1515 1517 1518 1520 1521 1522 1524 1524 1524 1526 1528 1530 1532 1534 1536 1537 1539 1540 1542 1543 1544 1545 1546 1547 1548 1549 1549 1550 1551 1552 1553 1554 1556 1560 1563 1563 1560 1556 1556 1555 1553 1552 1553 1554 1554 1555 1556 1556 1556 1556 1557 1556 1556 1556 1556 1555 1555 1555 1555 1556 1556 1556
1439 1442 1446 1450 1454 1458 1461 1464 1468 1472 1475 1478 1480 1483 1486 1488 1490 1493 1495 1497 1499 1502 1505 1507 1510 1511 1513 1515 1517 1518 1520 1522 1523 1522 1522 1525 1527 1529 1532 1533 1535 1537 1538 1539 1540 1542 1543 1545 1546 1547 1548 1549 1549 1549 1550 1551 1552 1554 1557 1560 1560 1559 1556 1552 1553 1552 1552 1552 1552 1553 1554 1555 1555 1556 1556 1557 1557 1556 1555 1555 1555 1555 1555 1555 1555 1555 1555 1556
1436 1439 1442 1446 1450 1454 1458 1461 1465 1469 1472 1475 1478 1481 1484 1486 1489 1491 1493 1495 1497 1500 1503 1505 1508 1510 1512 1514 1515 1517 1519 1521 1521 1518 1520 1524 1525 1528 1530 1532 1533 1535 1537 1538 1540 1541 1543 1545 1546 1547 1549 1549 1549 1549 1550 1551 1552 1552 1556 1558 1556 1554 1552 1551 1552 1552 1552 1551 1551 1553 1554 1554 1555 1555 1556 1556 1557 1556 1555 1554 1554 1554 1553 1554 1554 1554 1555 1555
1433 1435 1439 1443 1447 1451 1455 1458 1462 1466 1469 1473 1476 1479 1482 1484 1487 1490 1492 1494 1496 1499 1501 1503 1506 1509 1511 1513 1515 1516 1518 1521 1517 1515 1519 1522 1524 1527 1528 1530 1532 1534 1536 1537 1538 1541 1543 1544 1546 1547 1549 1549 1549 1549 1549 1550 1551 1552 1553 1554 1552 1552 1552 1551 1551 1551 1551 1552 1552 1553 1554 1555 1555 1555 1555 1556 1557 1557 1553 1551 1551 1552 1552 1552 1553 1553 1554 1554
1429 1432 1436 1440 1443 1448 1452 1456 1459 1463 1467 1470 1474 1477 1480 1483 1486 1488 1490 1492 1495 1497 1499 1502 1504 1507 1509 1512 1515 1515 1518 1521 1515 1514 1518 1520 1522 1525 1527 1529 1530 1532 1534 1535 1537 1540 1542 1543 1545 1547 1548 1549 1549 1550 1549 1549 1550 1551 1551 1550 1550 1551 1551 1550 1550 1551 1551 1551 1552 1553 1553 1554 1554 1555 1555 1555 1555 1554 1551 1550 1550 1551 1551 1551 1552 1552 1553 1554
1426 1428 1432 1437 1440 1445 1449 1453 1456 1460 1463 1467 1471 1475 1478 1481 1484 1487 1489 1491 1494 1496 1498 1500 1502 1504 1507 1510 1514 1514 1517 1517 1512 1513 1515 1517 1521 1524 1526 1528 1529 1532 1533 1534 1536 1539 1541 1542 1544 1546 1547 1548 1549 1549 1548 1549 1550 1550 1550 1550 1550 1550 1550 1550 1550 1550 1550 1551 1551 1552 1553 1553 1554 1554 1554 1554 1553 1551 1551 1550 1550 1551 1551 1551 1551 1551 1552 1552
1423 1426 1429 1433 1437 1442 1446 1451 1454 1457 1461 1465 1469 1472 1476 1479 1482 1485 1487 1490 1492 1494 1496 1499 1500 1502 1505 1510 1513 1514 1515 1513 1511 1513 1514 1516 1520 1522 1525 1527 1528 1530 1531 1533 1535 1538 1540 1541 1542 1544 1546 1548 1549 1548 1548 1549 1549 1550 1550 1549 1549 1550 1550 1550 1551 1550 1550 1550 1551 1552 1552 1553 1553 1553 1553 1552 1551 1551 1552 1551 1550 1551 1551 1551 1550 1550 1550 1551
1419 1423 1426 1430 1434 1438 1444 1448 1452 1455 1458 1462 1466 1470 1474 1477 1480 1483 1486 1489 1491 1493 1495 1497 1500 1501 1504 1507 1510 1513 1513 1511 1512 1513 1514 1515 1518 1521 1523 1525 1527 1529 1530 1532 1534 1536 1538 1539 1541 1543 1545 1547 1548 1548 1549 1549 1550 1550 1549 1549 1549 1549 1549 1550 1550 1551 1550 1550 1551 1551 1551 1552 1552 1553 1552 1550 1550 1551 1551 1550 1550 1550 1550 1550 1549 1549 1549 1549
1416 1419 1423 1428 1431 1435 1441 1445 1449 1453 1456 1460 1464 1467 1471 1475 1478 1481 1484 1487 1490 1492 1494 1496 1499 1501 1503 1505 1508 1511 1507 1507 1512 1514 1514 1515 1516 1519 1521 1523 1526 1527 1530 1532 1533 1536 1537 1538 1540 1542 1543 1545 1547 1547 1548 1550 1550 1548 1547 1548 1549 1549 1549 1550 1550 1550 1550 1550 1550 1550 1550 1550 1551 1551 1549 1548 1549 1550 1550 1549 1549 1549 1549 1548 1548 1548 1548 1548
1413 1416 1420 1425 1429 1433 1437 1442 1447 1451 1455 1458 1461 1465 1469 1473 1476 1479 1483 1486 1489 1491 1493 1495 1497 1500 1501 1503 1506 1507 1503 1505 1511 1512 1513 1514 1515 1518 1520 1523 1525 1526 1529 1531 1533 1534 1536 1537 1539 1541 1543 1544 1545 1546 1547 1548 1548 1546 1547 1548 1548 1548 1549 1549 1549 1549 1550 1550 1549 1550 1550 1549 1550 1550 1547 1546 1547 1548 1548 1548 1547 1547 1547 1547 1547 1547 1547 1547
1409 1413 1416 1421 1426 1430 1434 1440 1445 1449 1453 1456 1460 1463 1467 1471 1475 1478 1481 1484 1487 1490 1492 1494 1496 1498 1499 1501 1503 1502 1501 1505 1509 1510 1511 1513 1515 1517 1518 1521 1524 1526 1528 1530 1532 1534 1536 1538 1539 1541 1542 1543 1544 1546 1546 1546 1546 1546 1547 1548 1548 1548 1549 1548 1549 1549 1549 1549 1549 1549 1549 1548 1549 1547 1544 1545 1546 1546 1546 1546 1546 1546 1546 1546 1546 1546 1546 1546
1405 1410 1412 1418 1424 1428 1432 1437 1442 1447 1451 1454 1458 1462 1466 1470 1473 1476 1480 1483 1486 1489 1491 1493 1496 1497 1499 1500 1499 1500 1502 1505 1507 1508 1509 1512 1515 1517 1518 1520 1522 1526 1528 1529 1532 1534 1536 1538 1539 1540 1541 1541 1543 1545 1545 1545 1546 1546 1547 1549 1548 1548 1548 1548 1548 1549 1549 1549 1548 1549 1550 1547 1545 1542 1541 1544 1545 1545 1545 1545 1545 1545 1544 1545 1545 1544 1544 1544
1401 1406 1409 1414 1421 1426 1430 1434 1440 1445 1449 1453 1457 1461 1466 1469 1472 1476 1479 1482 1485 1487 1490 1492 1494 1495 1497 1498 1497 1500 1502 1503 1505 1507 1508 1511 1515 1517 1519 1520 1522 1525 1527 1529 1532 1533 1536 1537 1539 1540 1541 1542 1543 1544 1543 1544 1546 1547 1548 1549 1550 1552 1549 1546 1547 1548 1548 1549 1548 1550 1554 1547 1538 1538 1540 1542 1544 1543 1543 1542 1543 1543 1543 1543 1543 1542 1542 1542
1398 1404 1407 1412 1418 1424 1428 1432 1437 1443 1448 1452 1456 1460 1465 1469 1472 1475 1478 1481 1484 1486 1489 1491 1493 1494 1495 1496 1496 1499 1501 1503 1505 1505 1505 1509 1514 1517 1519 1520 1523 1525 1526 1529 1531 1534 1535 1537 1539 1541 1542 1543 1543 1544 1544 1545 1546 1547 1549 1550 1551 1555 1551 1544 1545 1547 1548 1549 1547 1550 1556 1545 1534 1537 1540 1540 1542 1541 1539 1539 1540 1540 1541 1541 1540 1540 1540 1540
1395 1401 1405 1409 1416 1421 1426 1430 1435 1440 1446 1450 1455 1460 1464 1468 1472 1475 1477 1480 1483 1486 1488 1490 1492 1493 1495 1495 1495 1497 1500 1502 1503 1503 1504 1507 1512 1516 1518 1520 1522 1525 1526 1528 1531 1534 1536 1537 1539 1541 1542 1543 1543 1545 1546 1547 1547 1546 1550 1553 1552 1554 1551 1544 1544 1546 1546 1548 1546 1550 1555 1543 1534 1536 1538 1539 1539 1538 1536 1536 1538 1538 1539 1539 1538 1538 1537 1537
1392 1397 1402 1407 1413 1419 1423 1428 1432 1438 1443 1448 1454 1459 1464 1468 1471 1474 1477 1480 1482 1484 1486 1488 1490 1492 1494 1493 1493 1495 1497 1499 1501 1503 1504 1507 1510 1514 1518 1519 1521 1524 1526 1528 1531 1534 1536 1537 1539 1541 1542 1543 1543 1545 1548 1551 1550 1547 1548 1552 1552 1553 1553 1547 1545 1544 1544 1546 1546 1548 1550 1541 1535 1535 1535 1537 1537 1536 1536 1535 1536 1536 1536 1537 1537 1536 1535 1535
1389 1394 1399 1405 1411 1416 1421 1426 1431 1436 1441 1446 1452 1458 1463 1467 1471 1474 1476 1478 1481 1483 1485 1487 1488 1492 1492 1490 1491 1491 1493 1497 1500 1501 1504 1507 1510 1513 1516 1518 1521 1525 1526 1528 1531 1533 1535 1537 1539 1541 1541 1542 1543 1544 1550 1554 1551 1549 1549 1551 1551 1551 1553 1550 1546 1544 1543 1546 1545 1546 1546 1538 1533 1535 1534 1536 1537 1536 1535 1534 1534 1534 1534 1534 1534 1534 1533 1532
1385 1391 1396 1402 1408 1414 1419 1424 1429 1434 1439 1445 1451 1458 1462 1466 1469 1472 1474 1476 1479 1483 1486 1487 1489 1493 1490 1486 1487 1488 1491 1495 1498 1500 1503 1506 1509 1512 1515 1517 1521 1525 1528 1529 1531 1533 1535 1537 1539 1541 1541 1543 1543 1542 1545 1546 1544 1548 1551 1551 1551 1550 1551 1550 1545 1542 1542 1545 1545 1546 1546 1537 1531 1534 1536 1536 1536 1536 1534 1533 1533 1532 1531 1532 1531 1531 1531 1529
1382 1388 1393 1400 1406 1412 1417 1422 1427 1432 1437 1443 1450 1456 1461 1464 1467 1471 1473 1474 1475 1478 1481 1481 1483 1485 1482 1479 1483 1486 1490 1494 1496 1499 1501 1504 1507 1511 1514 1517 1519 1524 1529 1532 1533 1533 1534 1537 1539 1540 1539 1539 1538 1537 1538 1538 1537 1543 1548 1548 1549 1549 1549 1547 1543 1541 1541 1545 1546 1546 1546 1538 1530 1532 1534 1534 1535 1535 1532 1531 1530 1529 1529 1529 1529 1528 1527 1526
1380 1386 1391 1397 1404 1410 1415 1420 1424 1429 1434 1440 1446 1452 1456 1459 1464 1469 1471 1472 1472 1472 1474 1474 1475 1477 1477 1477 1482 1486 1490 1493 1495 1497 1500 1502 1505 1510 1514 1516 1519 1523 1528 1532 1534 1533 1534 1537 1536 1533 1531 1532 1534 1536 1536 1537 1537 1540 1545 1547 1547 1547 1546 1544 1542 1540 1540 1543 1544 1542 1543 1538 1529 1529 1531 1531 1533 1533 1530 1527 1526 1526 1526 1526 1525 1524 1523 1522
1378 1384 1389 1395 1402 1408 1413 1418 1423 1427 1432 1437 1441 1445 1447 1449 1452 1457 1462 1468 1470 1470 1472 1473 1474 1477 1477 1478 1481 1484 1488 1492 1495 1497 1499 1502 1504 1508 1513 1515 1517 1521 1524 1529 1533 1533 1534 1534 1531 1528 1528 1530 1533 1536 1537 1538 1538 1539 1543 1546 1547 1546 1544 1542 1541 1541 1541 1543 1542 1540 1542 1538 1530 1527 1527 1529 1531 1529 1525 1524 1523 1523 1523 1522 1521 1520 1520 1520
1377 1383 1388 1393 1399 1406 1411 1416 1421 1425 1430 1435 1439 1441 1443 1444 1446 1447 1452 1461 1467 1469 1472 1473 1475 1478 1478 1480 1482 1484 1487 1490 1494 1496 1497 1501 1504 1505 1510 1513 1514 1516 1519 1526 1533 1534 1534 1531 1526 1526 1529 1531 1534 1536 1538 1539 1539 1540 1542 1545 1547 1546 1545 1543 1540 1540 1542 1543 1541 1539 1541 1537 1529 1525 1524 1526 1527 1522 1519 1521 1520 1519 1520 1518 1516 1516 1517 1517
1375 1382 1388 1391 1397 1404 1409 1415 1420 1424 1428 1432 1435 1438 1442 1445 1448 1449 1453 1460 1467 1470 1471 1473 1475 1477 1479 1481 1482 1484 1486 1488 1491 1493 1495 1499 1502 1504 1507 1510 1512 1515 1519 1524 1531 1535 1534 1527 1523 1527 1529 1531 1535 1538 1539 1541 1541 1541 1542 1545 1546 1544 1546 1544 1541 1541 1542 1542 1541 1540 1540 1536 1529 1524 1521 1520 1520 1517 1515 1517 1516 1516 1515 1513 1512 1513 1513 1513
1372 1380 1387 1390 1395 1402 1407 1413 1419 1422 1426 1430 1434 1437 1441 1445 1448 1450 1455 1462 1468 1470 1471 1474 1475 1476 1479 1480 1482 1484 1485 1487 1489 1490 1494 1497 1500 1503 1504 1506 1511 1516 1519 1519 1524 1531 1530 1523 1521 1525 1528 1531 1537 1540 1540 1542 1542 1541 1540 1542 1543 1542 1543 1541 1540 1540 1541 1541 1540 1541 1541 1533 1526 1524 1517 1514 1516 1514 1512 1513 1512 1511 1509 1509 1509 1509 1508 1508
1370 1378 1386 1390 1394 1399 1405 1411 1415 1419 1424 1429 1433 1437 1442 1445 1448 1451 1454 1463 1469 1471 1472 1474 1474 1475 1477 1480 1482 1484 1486 1487 1488 1489 1492 1494 1498 1501 1503 1506 1510 1514 1516 1516 1522 1527 1526 1524 1523 1524 1528 1532 1537 1539 1539 1540 1542 1541 1538 1537 1539 1540 1540 1540 1540 1541 1542 1543 1539 1542 1546 1532 1521 1522 1517 1512 1515 1513 1510 1510 1508 1504 1504 1505 1505 1503 1502 1503
1369 1377 1383 1389 1393 1396 1402 1407 1412 1418 1423 1428 1431 1436 1441 1444 1449 1451 1455 1467 1471 1469 1472 1473 1473 1474 1475 1479 1481 1484 1488 1487 1487 1489 1490 1494 1497 1498 1502 1506 1507 1510 1512 1516 1522 1523 1521 1522 1523 1525 1529 1532 1536 1538 1536 1537 1543 1542 1534 1533 1537 1538 1538 1540 1540 1541 1545 1546 1541 1542 1547 1537 1523 1519 1516 1513 1514 1511 1508 1508 1504 1500 1500 1501 1499 1497 1497 1498
1368 1375 1381 1387 1390 1392 1395 1400 1408 1414 1418 1424 1429 1435 1440 1443 1449 1449 1457 1477 1475 1464 1469 1472 1471 1472 1472 1476 1479 1483 1487 1484 1485 1489 1488 1492 1495 1496 1501 1504 1505 1507 1509 1517 1522 1515 1512 1519 1523 1525 1529 1532 1534 1533 1529 1531 1539 1537 1528 1529 1535 1536 1538 1540 1540 1541 1542 1543 1543 1542 1545 1545 1531 1517 1513 1512 1512 1509 1506 1504 1500 1496 1496 1495 1494 1493 1493 1493
1366 1373 1379 1385 1389 1391 1393 1396 1404 1409 1413 1420 1426 1434 1439 1443 1449 1448 1460 1481 1473 1457 1463 1468 1468 1470 1471 1475 1478 1480 1482 1480 1483 1487 1487 1491 1493 1496 1500 1499 1500 1502 1504 1512 1515 1507 1506 1514 1517 1519 1525 1529 1526 1521 1522 1528 1534 1531 1527 1529 1533 1535 1539 1542 1541 1542 1543 1546 1545 1542 1546 1548 1531 1514 1512 1512 1510 1508 1503 1498 1495 1492 1491 1490 1489 1488 1489 1490
1365 1371 1377 1382 1387 1392 1395 1398 1402 1407 1413 1419 1425 1434 1438 1442 1447 1449 1462 1473 1460 1452 1458 1462 1466 1470 1471 1475 1477 1478 1480 1480 1482 1485 1487 1490 1491 1493 1497 1496 1497 1501 1503 1505 1504 1504 1506 1508 1508 1513 1520 1521 1517 1516 1520 1526 1528 1528 1528 1530 1533 1536 1540 1544 1544 1542 1545 1548 1544 1539 1544 1545 1524 1506 1509 1513 1510 1507 1500 1495 1491 1488 1486 1486 1485 1485 1485 1487
1363 1369 1375 1380 1385 1390 1395 1401 1405 1408 1414 1420 1426 1433 1438 1443 1446 1454 1469 1464 1449 1451 1457 1458 1463 1465 1468 1474 1476 1477 1479 1480 1482 1483 1486 1489 1490 1492 1494 1496 1498 1502 1507 1506 1503 1504 1504 1504 1508 1511 1513 1512 1512 1517 1521 1524 1527 1529 1531 1533 1537 1540 1540 1544 1546 1545 1547 1546 1537 1531 1536 1542 1526 1502 1500 1503 1500 1498 1496 1493 1487 1482 1482 1482 1481 1481 1482 1483
1362 1368 1374 1378 1382 1386 1391 1398 1404 1408 1414 1420 1428 1433 1439 1445 1447 1459 1467 1452 1442 1452 1456 1457 1461 1461 1465 1470 1473 1477 1479 1481 1482 1482 1485 1488 1490 1492 1493 1496 1500 1504 1509 1509 1507 1506 1505 1507 1509 1507 1507 1508 1512 1519 1522 1524 1528 1532 1534 1533 1539 1545 1543 1546 1549 1549 1550 1540 1526 1521 1527 1539 1529 1502 1493 1495 1491 1491 1491 1487 1482 1479 1479 1478 1478 1479 1479 1480
1361 1368 1373 1378 1382 1386 1390 1395 1400 1407 1414 1419 1427 1432 1438 1447 1453 1456 1453 1442 1444 1452 1453 1456 1459 1460 1464 1468 1470 1474 1476 1480 1481 1481 1483 1485 1487 1488 1488 1490 1493 1499 1505 1507 1507 1508 1508 1506 1503 1503 1505 1506 1511 1520 1526 1528 1529 1535 1537 1535 1541 1548 1547 1547 1547 1547 1545 1532 1521 1521 1526 1531 1516 1492 1489 1491 1488 1488 1486 1482 1479 1477 1476 1475 1476 1477 1477 1478
1361 1368 1374 1379 1383 1388 1391 1395 1401 1407 1414 1419 1426 1431 1437 1448 1452 1446 1440 1439 1443 1444 1446 1452 1455 1457 1461 1465 1468 1471 1474 1478 1479 1480 1481 1482 1485 1485 1485 1485 1485 1489 1495 1499 1502 1506 1509 1507 1504 1505 1505 1504 1507 1515 1523 1524 1525 1530 1532 1531 1535 1541 1544 1544 1543 1544 1540 1528 1522 1526 1527 1523 1506 1487 1485 1485 1483 1482 1480 1478 1476 1474 1474 1473 1474 1475 1475 1475
1362 1368 1374 1379 1384 1388 1392 1397 1402 1407 1413 1419 1424 1430 1438 1446 1444 1437 1438 1440 1441 1440 1442 1447 1452 1458 1460 1461 1464 1466 1472 1476 1476 1478 1480 1481 1484 1485 1485 1485 1486 1488 1492 1496 1498 1500 1503 1502 1500 1499 1497 1497 1499 1500 1501 1506 1513 1518 1518 1522 1525 1526 1530 1532 1533 1535 1532 1526 1526 1528 1526 1516 1501 1488 1482 1480 1479 1478 1476 1475 1473 1472 1471 1471 1471 1472 1471 1470
1363 1369 1374 1379 1385 1389 1392 1397 1402 1407 1413 1418 1424 1430 1436 1437 1433 1434 1438 1438 1440 1442 1442 1444 1451 1460 1463 1462 1463 1463 1467 1472 1475 1477 1478 1479 1480 1480 1481 1482 1484 1487 1491 1495 1497 1496 1496 1492 1487 1487 1487 1489 1493 1493 1495 1503 1514 1516 1516 1522 1522 1515 1516 1523 1526 1524 1523 1527 1527 1524 1516 1502 1489 1482 1479 1479 1478 1475 1474 1473 1470 1469 1467 1468 1468 1466 1466 1466
1364 1370 1375 1379 1384 1388 1392 1397 1402 1407 1411 1416 1425 1430 1429 1425 1423 1427 1429 1429 1433 1437 1441 1447 1452 1457 1462 1464 1465 1465 1466 1469 1474 1477 1477 1478 1478 1477 1477 1478 1479 1482 1484 1487 1490 1492 1495 1490 1484 1486 1488 1487 1487 1489 1494 1500 1507 1514 1517 1518 1513 1508 1510 1519 1526 1524 1524 1529 1522 1513 1508 1499 1489 1480 1472 1475 1476 1471 1470 1468 1466 1464 1462 1464 1464 1461 1462 1462
1363 1369 1374 1379 1383 1387 1390 1395 1401 1408 1411 1415 1423 1426 1423 1418 1417 1420 1421 1424 1429 1432 1437 1445 1448 1450 1457 1461 1463 1465 1466 1468 1472 1474 1476 1478 1476 1474 1476 1476 1476 1478 1479 1481 1483 1484 1488 1488 1484 1486 1489 1485 1484 1488 1494 1493 1496 1507 1512 1507 1507 1513 1514 1516 1525 1528 1531 1532 1518 1506 1504 1501 1499 1485 1469 1472 1475 1470 1467 1462 1459 1460 1459 1460 1460 1458 1459 1458
1361 1368 1374 1378 1383 1387 1390 1395 1400 1406 1411 1417 1421 1420 1418 1418 1418 1419 1420 1423 1428 1431 1435 1441 1443 1446 1451 1455 1458 1460 1463 1466 1469 1471 1473 1474 1471 1466 1470 1474 1473 1474 1476 1479 1483 1482 1483 1488 1486 1484 1484 1483 1487 1495 1500 1497 1495 1499 1500 1498 1505 1516 1517 1517 1522 1523 1526 1525 1512 1502 1499 1495 1492 1479 1467 1471 1472 1468 1464 1457 1455 1458 1456 1456 1455 1455 1456 1455
1362 1368 1374 1377 1383 1387 1390 1394 1399 1404 1411 1417 1419 1417 1417 1418 1418 1417 1419 1422 1426 1430 1434 1436 1439 1443 1446 1449 1452 1455 1459 1460 1462 1467 1468 1469 1467 1460 1461 1467 1468 1470 1472 1475 1481 1481 1482 1487 1485 1481 1481 1484 1489 1495 1499 1499 1499 1498 1498 1500 1504 1508 1509 1510 1510 1508 1512 1515 1507 1499 1495 1486 1473 1463 1462 1466 1466 1466 1464 1457 1455 1456 1453 1452 1452 1452 1453 1453
1363 1368 1373 1376 1382 1387 1390 1395 1400 1405 1410 1412 1413 1414 1414 1415 1416 1417 1418 1421 1424 1428 1431 1432 1435 1440 1443 1445 1448 1452 1455 1455 1457 1463 1463 1462 1463 1459 1458 1462 1465 1468 1470 1473 1476 1479 1483 1486 1484 1483 1484 1485 1487 1487 1484 1486 1492 1497 1497 1499 1501 1504 1506 1507 1504 1501 1503 1509 1507 1501 1492 1471 1455 1455 1458 1459 1460 1461 1460 1457 1454 1451 1448 1448 1447 1448 1450 1450
1363 1369 1373 1377 1381 1385 1389 1396 1401 1404 1408 1410 1411 1413 1414 1414 1415 1418 1419 1421 1423 1425 1427 1429 1432 1435 1439 1442 1445 1448 1453 1455 1456 1459 1460 1458 1459 1457 1455 1457 1460 1464 1470 1474 1475 1476 1481 1484 1483 1483 1483 1482 1479 1474 1469 1470 1477 1483 1485 1485 1487 1492 1499 1504 1504 1499 1498 1500 1498 1498 1486 1458 1445 1451 1452 1451 1454 1453 1452 1452 1449 1445 1443 1444 1444 1445 1448 1448
1364 1369 1371 1375 1380 1383 1389 1396 1400 1403 1406 1407 1407 1410 1411 1412 1414 1417 1419 1421 1423 1425 1426 1428 1430 1433 1435 1438 1441 1445 1449 1453 1454 1455 1455 1454 1452 1450 1449 1450 1454 1458 1463 1469 1470 1470 1474 1479 1480 1479 1477 1476 1473 1470 1470 1471 1472 1476 1478 1478 1479 1484 1489 1495 1497 1494 1494 1494 1489 1494 1487 1455 1439 1447 1445 1443 1447 1445 1445 1446 1444 1442 1442 1443 1444 1445 1446 1446
1364 1368 1371 1376 1379 1383 1389 1395 1398 1402 1404 1403 1404 1407 1409 1410 1413 1417 1419 1421 1423 1425 1426 1428 1429 1431 1432 1434 1437 1442 1446 1449 1451 1450 1450 1451 1448 1446 1446 1448 1451 1455 1460 1464 1467 1469 1474 1476 1479 1478 1475 1474 1473 1473 1474 1474 1475 1477 1479 1478 1478 1479 1479 1480 1481 1481 1485 1487 1485 1494 1490 1456 1436 1442 1442 1440 1442 1441 1441 1442 1441 1442 1441 1441 1443 1443 1444 1444
1364 1367 1372 1377 1382 1385 1387 1389 1393 1399 1401 1402 1405 1408 1409 1410 1412 1414 1417 1419 1421 1423 1425 1426 1427 1427 1429 1431 1433 1437 1441 1444 1446 1447 1447 1447 1445 1444 1446 1448 1450 1453 1456 1457 1460 1465 1468 1470 1474 1477 1476 1475 1476 1477 1477 1477 1477 1474 1471 1471 1471 1470 1473 1476 1478 1479 1480 1479 1478 1487 1483 1452 1432 1438 1441 1440 1441 1441 1441 1440 1440 1441 1440 1439 1441 1441 1441 1442
1363 1368 1371 1375 1381 1385 1385 1384 1388 1393 1397 1400 1404 1405 1407 1410 1410 1410 1413 1416 1418 1421 1422 1424 1425 1426 1428 1431 1433 1434 1436 1437 1440 1443 1445 1446 1444 1443 1445 1447 1447 1448 1449 1450 1453 1457 1461 1462 1464 1466 1467 1465 1463 1463 1463 1466 1470 1469 1465 1466 1466 1465 1469 1471 1473 1477 1475 1470 1469 1473 1466 1443 1431 1438 1441 1440 1441 1441 1439 1439 1440 1440 1439 1438 1438 1439 1439 1439
1359 1366 1371 1373 1377 1382 1383 1383 1386 1390 1393 1398 1401 1402 1404 1408 1410 1410 1412 1415 1417 1419 1420 1422 1424 1426 1430 1432 1433 1435 1435 1435 1437 1439 1442 1443 1441 1440 1441 1442 1444 1445 1445 1447 1450 1453 1458 1459 1458 1457 1454 1449 1447 1448 1449 1450 1458 1464 1463 1462 1461 1458 1458 1461 1466 1468 1464 1462 1462 1458 1452 1442 1434 1436 1439 1437 1438 1439 1437 1437 1438 1438 1437 1435 1434 1435 1436 1436
1357 1361 1367 1370 1373 1379 1383 1385 1386 1387 1389 1392 1395 1397 1400 1405 1409 1411 1413 1414 1415 1417 1419 1422 1423 1424 1427 1428 1430 1432 1433 1434 1436 1437 1437 1437 1437 1438 1438 1439 1441 1442 1443 1446 1446 1449 1454 1453 1452 1454 1450 1443 1443 1448 1449 1447 1450 1455 1455 1454 1454 1453 1455 1459 1460 1455 1453 1460 1459 1449 1448 1447 1433 1427 1433 1435 1435 1436 1435 1435 1435 1434 1433 1431 1431 1433 1433 1433
1357 1358 1362 1364 1366 1371 1375 1378 1381 1383 1385 1389 1391 1392 1397 1402 1406 1409 1411 1412 1413 1414 1417 1421 1421 1420 1421 1423 1425 1428 1431 1433 1435 1435 1435 1435 1436 1438 1439 1439 1439 1439 1441 1446 1445 1446 1450 1447 1444 1447 1446 1442 1444 1448 1449 1447 1447 1449 1450 1450 1451 1451 1453 1453 1450 1444 1445 1451 1447 1437 1441 1443 1426 1420 1429 1430 1429 1431 1431 1430 1430 1430 1429 1430 1431 1431 1431 1431
1355 1357 1361 1363 1364 1366 1366 1368 1374 1379 1382 1386 1389 1390 1393 1398 1402 1404 1407 1411 1413 1412 1411 1414 1416 1417 1418 1420 1421 1422 1424 1428 1429 1429 1430 1431 1433 1435 1437 1438 1438 1436 1439 1444 1443 1444 1448 1445 1441 1444 1444 1440 1441 1445 1448 1448 1447 1448 1449 1450 1451 1452 1453 1450 1446 1442 1440 1442 1439 1435 1438 1437 1424 1419 1423 1424 1425 1428 1428 1427 1428 1428 1429 1429 1429 1429 1429 1429
1353 1355 1358 1361 1365 1368 1368 1370 1375 1380 1383 1385 1386 1388 1388 1392 1397 1400 1404 1406 1408 1410 1409 1407 1410 1414 1415 1419 1420 1416 1413 1414 1417 1419 1422 1426 1427 1429 1431 1431 1432 1434 1437 1439 1439 1441 1442 1439 1437 1444 1447 1442 1439 1443 1447 1448 1447 1445 1445 1446 1447 1451 1454 1453 1450 1446 1445 1446 1441 1436 1438 1434 1420 1413 1418 1422 1425 1427 1427 1427 1428 1428 1428 1428 1427 1427 1426 1426
1353 1354 1355 1358 1364 1369 1370 1372 1376 1379 1384 1385 1384 1385 1386 1387 1392 1397 1401 1402 1401 1404 1405 1404 1407 1413 1414 1417 1419 1414 1410 1410 1412 1414 1418 1421 1422 1423 1426 1426 1426 1431 1434 1434 1436 1437 1439 1436 1435 1441 1444 1438 1435 1440 1443 1445 1448 1445 1442 1443 1445 1446 1448 1451 1448 1442 1441 1442 1440 1439 1439 1427 1412 1410 1418 1423 1424 1424 1425 1425 1426 1426 1426 1426 1424 1424 1423 1423
1354 1355 1356 1357 1363 1369 1370 1372 1376 1378 1381 1383 1382 1382 1383 1385 1389 1393 1398 1402 1400 1400 1402 1402 1404 1409 1412 1415 1415 1412 1411 1411 1412 1414 1417 1420 1421 1422 1425 1426 1426 1426 1428 1430 1432 1433 1435 1435 1433 1438 1439 1432 1429 1434 1439 1445 1445 1438 1433 1436 1438 1438 1440 1443 1442 1438 1435 1435 1437 1436 1428 1414 1409 1415 1419 1419 1419 1420 1419 1420 1422 1422 1422 1422 1421 1420 1421 1422